Weather History for Iowa City, IA

Change the Weather History Date:

Thursday, November 22, 2012

  Actual Average Record
Temperature  
Mean Temperature 50 °F 36 °F  
Max Temperature 62 °F 44 °F 66 °F (1966)
Min Temperature 38 °F 27 °F 5 °F (1964)
Degree Days  
Heating Degree Days 15 29  
Month to date heating degree days 466 528  
Since 1 July heating degree days 1066 1053  
Cooling Degree Days 0 0  
Month to date cooling degree days 0 0  
Year to date cooling degree days 1266 912  
Growing Degree Days 2 (Base 50)    
Moisture  
Dew Point 39 °F    
Average Humidity 64    
Maximum Humidity 77    
Minimum Humidity 51    
Precipitation  
Precipitation 0.00 in 0.06 in 1.84 in (1963)
Month to date precipitation 1.63 1.77  
Year to date precipitation 24.83 34.18  
Sea Level Pressure  
Sea Level Pressure 29.90 in    
Wind  
Wind Speed 14 mph (SW)    
Max Wind Speed 31 mph    
Max Gust Speed 40 mph    
Visibility 10 miles    
Events      
T = Trace of Precipitation, MM = Missing Value Source: NWS Daily Summary

Daily Weather History Graph

Daily Weather History Graph

Search for Another Location

Airport:

Trip Planner

Search our weather history database for the weather conditions in past years. The results will help you decide how hot, cold, wet, or windy it might be!

Date:

Astronomy

Nov. 22, 2012 Rise Set
Actual Time 7:04 AM CST 4:40 PM CST
Civil Twilight 6:33 AM CST 5:10 PM CST
Nautical Twilight 5:59 AM CST 5:44 PM CST
Astronomical Twilight 5:26 AM CST 6:18 PM CST
Moon 1:29 PM CST (11/22) 1:20 AM CST (11/22)
Length of Visible Light 10h 37m
Length of Day
9h 36m
Waxing Gibbous, 71% of the Moon is Illuminated
Nov 22
Waxing Gibbous
Nov 28
Full
Dec 6
Last Quarter
Dec 13
New
Dec 19
First Quarter

Hourly Weather History & Observations

Time (CST) Temp. Windchill Dew Point Humidity Pressure Visibility Wind Dir Wind Speed Gust Speed Precip Events Conditions
12:52 AM 50.0 °F - 39.9 °F 68% 29.99 in 10.0 mi South 15.0 mph - N/A   Clear
1:52 AM 48.9 °F - 39.0 °F 69% 29.97 in 10.0 mi South 10.4 mph - N/A   Clear
2:52 AM 48.0 °F - 39.0 °F 71% 29.95 in 10.0 mi South 11.5 mph - N/A   Clear
3:52 AM 48.0 °F - 37.9 °F 68% 29.93 in 10.0 mi South 10.4 mph - N/A   Clear
4:52 AM 48.0 °F - 37.9 °F 68% 29.90 in 10.0 mi SSE 6.9 mph - N/A   Clear
5:52 AM 48.9 °F - 37.9 °F 66% 29.89 in 10.0 mi South 8.1 mph - N/A   Clear
6:52 AM 51.1 °F - 39.0 °F 63% 29.87 in 10.0 mi South 13.8 mph - N/A   Overcast
7:52 AM 51.1 °F - 39.9 °F 66% 29.87 in 10.0 mi South 12.7 mph - N/A   Clear
8:52 AM 53.1 °F - 39.9 °F 61% 29.87 in 10.0 mi South 11.5 mph - N/A   Clear
9:52 AM 55.9 °F - 41.0 °F 57% 29.85 in 10.0 mi South 15.0 mph 20.7 mph N/A   Clear
10:52 AM 61.0 °F - 43.0 °F 52% 29.82 in 10.0 mi SSW 11.5 mph 28.8 mph N/A   Clear
11:52 AM 62.1 °F - 44.1 °F 52% 29.79 in 10.0 mi SSW 17.3 mph 25.3 mph N/A   Clear
12:52 PM 61.0 °F - 45.0 °F 56% 29.77 in 10.0 mi SSW 17.3 mph 24.2 mph N/A   Clear
1:52 PM 61.0 °F - 46.0 °F 58% 29.75 in 10.0 mi SSW 16.1 mph 21.9 mph N/A   Clear
2:52 PM 61.0 °F - 46.9 °F 60% 29.76 in 10.0 mi SSW 13.8 mph - N/A   Clear
3:52 PM 60.1 °F - 48.0 °F 64% 29.78 in 10.0 mi SW 6.9 mph - N/A   Clear
4:52 PM 60.1 °F - 48.0 °F 64% 29.80 in 10.0 mi WSW 10.4 mph - N/A   Clear
5:52 PM 53.1 °F - 37.9 °F 57% 29.88 in 10.0 mi NW 26.5 mph 36.8 mph N/A   Clear
6:52 PM 48.0 °F - 36.0 °F 63% 29.95 in 10.0 mi WNW 23.0 mph 33.4 mph N/A   Clear
7:52 PM 46.0 °F 39.0 °F 35.1 °F 66% 29.99 in 10.0 mi NW 17.3 mph 29.9 mph N/A   Clear
8:52 PM 41.0 °F 31.4 °F 32.0 °F 70% 30.04 in 10.0 mi NW 21.9 mph 32.2 mph N/A   Scattered Clouds
9:01 PM 42.8 °F 33.5 °F 32.0 °F 66% 30.04 in 10.0 mi WNW 23.0 mph 28.8 mph N/A   Mostly Cloudy
9:52 PM 41.0 °F 34.3 °F 32.0 °F 70% 30.05 in 10.0 mi WNW 11.5 mph 20.7 mph N/A   Mostly Cloudy
10:52 PM 41.0 °F 32.8 °F 30.9 °F 67% 30.05 in 10.0 mi WNW 16.1 mph 21.9 mph N/A   Clear
11:52 PM 39.0 °F 32.3 °F 30.9 °F 73% 30.06 in 10.0 mi West 10.4 mph - N/A   Mostly Cloudy